UAL1440 KRDU-KBOS

Flight info

Callsign UAL1440
Flight time 1h 33m
Altitude 35000
Route BEXGO5 BOUSY GEARS BBOBO Q22 RBV Q419 JFK ROBUC3
Aircraft B738/M-SDGIJ1LRWY/SB1

Departure

Time 2026-05-07 00:14
Airport Raleigh-Durham International Airport (KRDU)

Arrival

Time 2026-05-07 01:48
Airport Boston Logan International Airport (KBOS)
Time Latitude Longitude Altitude Speed Heading
2026-05-06 23:44 35.87812 -78.79348 389 ft 0 kts 135°
2026-05-06 23:58 35.87814 -78.79350 388 ft 1 kts 134°
2026-05-06 23:59 35.87825 -78.79364 387 ft 1 kts 135°
2026-05-06 23:59 35.87833 -78.79374 387 ft 2 kts 123°
2026-05-06 23:59 35.87838 -78.79393 386 ft 2 kts 96°
2026-05-06 23:59 35.87837 -78.79413 385 ft 2 kts 71°
2026-05-07 00:00 35.87830 -78.79429 385 ft 0 kts 48°
2026-05-07 00:00 35.87825 -78.79435 385 ft 1 kts 44°
2026-05-07 00:00 35.87824 -78.79436 385 ft 0 kts 44°
2026-05-07 00:04 35.87825 -78.79436 385 ft 0 kts 44°
2026-05-07 00:04 35.87860 -78.79392 386 ft 13 kts 45°
2026-05-07 00:04 35.87944 -78.79287 390 ft 18 kts 45°
2026-05-07 00:04 35.88028 -78.79183 393 ft 15 kts 45°
2026-05-07 00:05 35.88108 -78.79083 396 ft 17 kts 45°
2026-05-07 00:05 35.88189 -78.78985 397 ft 15 kts 45°
2026-05-07 00:05 35.88260 -78.78896 399 ft 13 kts 45°
2026-05-07 00:05 35.88332 -78.78808 400 ft 18 kts 45°
2026-05-07 00:06 35.88427 -78.78690 401 ft 18 kts 45°
2026-05-07 00:06 35.88517 -78.78578 401 ft 18 kts 45°
2026-05-07 00:06 35.88606 -78.78468 401 ft 17 kts 45°
2026-05-07 00:06 35.88694 -78.78359 400 ft 18 kts 45°
2026-05-07 00:07 35.88786 -78.78246 400 ft 18 kts 45°
2026-05-07 00:07 35.88876 -78.78135 401 ft 17 kts 45°
2026-05-07 00:07 35.88960 -78.78027 402 ft 16 kts 54°
2026-05-07 00:07 35.89002 -78.77908 404 ft 14 kts 60°
2026-05-07 00:08 35.89061 -78.77827 406 ft 11 kts 45°
2026-05-07 00:08 35.89111 -78.77765 408 ft 9 kts 45°
2026-05-07 00:08 35.89151 -78.77715 409 ft 8 kts 45°
2026-05-07 00:08 35.89194 -78.77663 409 ft 8 kts 37°
2026-05-07 00:09 35.89246 -78.77664 409 ft 6 kts 327°
2026-05-07 00:09 35.89261 -78.77680 409 ft 0 kts 315°
2026-05-07 00:10 35.89263 -78.77683 409 ft 3 kts 315°
2026-05-07 00:10 35.89289 -78.77714 409 ft 5 kts 315°
2026-05-07 00:11 35.89301 -78.77729 409 ft 0 kts 315°
2026-05-07 00:13 35.89343 -78.77779 408 ft 13 kts 312°
2026-05-07 00:13 35.89332 -78.77866 408 ft 4 kts 225°
2026-05-07 00:13 35.89331 -78.77867 408 ft 0 kts 225°
2026-05-07 00:13 35.89294 -78.77914 407 ft 35 kts 225°
2026-05-07 00:14 35.88908 -78.78391 395 ft 118 kts 225°
2026-05-07 00:14 35.88186 -78.79285 577 ft 166 kts 225°
2026-05-07 00:14 35.87363 -78.80307 1388 ft 173 kts 225°
2026-05-07 00:14 35.86536 -78.81335 2336 ft 171 kts 224°
2026-05-07 00:15 35.85648 -78.82298 2994 ft 177 kts 221°
2026-05-07 00:15 35.84666 -78.83282 3546 ft 191 kts 221°
2026-05-07 00:15 35.83584 -78.84351 4064 ft 209 kts 220°
2026-05-07 00:15 35.82383 -78.85526 4622 ft 227 kts 221°
2026-05-07 00:16 35.81130 -78.86732 5308 ft 238 kts 221°
2026-05-07 00:16 35.79785 -78.88009 5937 ft 252 kts 221°
2026-05-07 00:16 35.78381 -78.89327 6756 ft 258 kts 221°
2026-05-07 00:16 35.76944 -78.90665 7604 ft 261 kts 223°
2026-05-07 00:17 35.75802 -78.92315 8407 ft 257 kts 247°
2026-05-07 00:17 35.75264 -78.94383 9257 ft 257 kts 259°
2026-05-07 00:17 35.75065 -78.96567 9953 ft 263 kts 277°
2026-05-07 00:17 35.75759 -78.98637 10664 ft 275 kts 304°
2026-05-07 00:18 35.77339 -79.00083 11144 ft 303 kts 332°
2026-05-07 00:18 35.79491 -79.00671 11667 ft 325 kts 346°
2026-05-07 00:18 35.81807 -79.00837 11943 ft 350 kts 355°
2026-05-07 00:18 35.84316 -79.00391 11965 ft 373 kts
2026-05-07 00:19 35.86861 -78.99560 11965 ft 380 kts
2026-05-07 00:19 35.89405 -78.98618 11963 ft 379 kts 10°
2026-05-07 00:19 35.91933 -78.97652 11959 ft 382 kts 10°
2026-05-07 00:19 35.94460 -78.96680 11960 ft 384 kts 11°
2026-05-07 00:20 35.97007 -78.95692 11970 ft 383 kts 11°
2026-05-07 00:20 35.99572 -78.94712 11964 ft 382 kts
2026-05-07 00:20 36.02132 -78.94407 11966 ft 364 kts 347°
2026-05-07 00:20 36.04573 -78.95074 11966 ft 356 kts 335°
2026-05-07 00:21 36.06895 -78.96033 11960 ft 353 kts 337°
2026-05-07 00:21 36.09363 -78.96413 11955 ft 371 kts 357°
2026-05-07 00:21 36.11913 -78.95570 11962 ft 389 kts 20°
2026-05-07 00:21 36.14101 -78.93539 11967 ft 399 kts 43°
2026-05-07 00:22 36.15590 -78.90623 11976 ft 407 kts 65°
2026-05-07 00:22 36.16533 -78.87305 11967 ft 408 kts 71°
2026-05-07 00:22 36.17340 -78.83891 12111 ft 421 kts 72°
2026-05-07 00:22 36.18113 -78.80430 13064 ft 418 kts 73°
2026-05-07 00:23 36.18888 -78.76970 13831 ft 420 kts 72°
2026-05-07 00:23 36.19688 -78.73486 14560 ft 424 kts 71°
2026-05-07 00:23 36.20508 -78.69989 15192 ft 430 kts 72°
2026-05-07 00:23 36.21348 -78.66457 15841 ft 434 kts 71°
2026-05-07 00:24 36.22210 -78.62869 16515 ft 438 kts 71°
2026-05-07 00:24 36.23082 -78.59253 17154 ft 442 kts 71°
2026-05-07 00:24 36.23972 -78.55564 17762 ft 447 kts 70°
2026-05-07 00:24 36.24863 -78.51882 18390 ft 451 kts 71°
2026-05-07 00:25 36.25757 -78.48195 19025 ft 454 kts 70°
2026-05-07 00:25 36.26844 -78.44473 19553 ft 457 kts 63°
2026-05-07 00:25 36.28302 -78.41044 20205 ft 454 kts 53°
2026-05-07 00:25 36.30179 -78.37914 20655 ft 455 kts 43°
2026-05-07 00:26 36.32439 -78.35194 21214 ft 452 kts 34°
2026-05-07 00:26 36.34937 -78.32845 21726 ft 452 kts 29°
2026-05-07 00:26 36.37570 -78.30647 22250 ft 454 kts 27°
2026-05-07 00:26 36.40233 -78.28490 22747 ft 458 kts 27°
2026-05-07 00:27 36.42895 -78.26305 23184 ft 464 kts 28°
2026-05-07 00:27 36.45594 -78.24021 23768 ft 466 kts 28°
2026-05-07 00:27 36.48259 -78.21699 24103 ft 474 kts 30°
2026-05-07 00:27 36.50926 -78.19312 24622 ft 477 kts 30°
2026-05-07 00:28 36.53593 -78.16870 25155 ft 479 kts 31°
2026-05-07 00:28 36.56275 -78.14377 25565 ft 484 kts 31°
2026-05-07 00:28 36.58965 -78.11852 26057 ft 487 kts 31°
2026-05-07 00:28 36.61648 -78.09319 26529 ft 490 kts 31°
2026-05-07 00:29 36.64398 -78.06717 26946 ft 493 kts 31°
2026-05-07 00:29 36.67105 -78.04151 27281 ft 498 kts 31°
2026-05-07 00:30 36.75441 -77.96236 28523 ft 506 kts 31°
2026-05-07 00:30 36.78182 -77.93554 29085 ft 507 kts 33°
2026-05-07 00:30 36.80808 -77.90586 29681 ft 510 kts 38°
2026-05-07 00:30 36.83246 -77.87357 30120 ft 516 kts 43°
2026-05-07 00:31 36.85530 -77.83871 30500 ft 521 kts 46°
2026-05-07 00:31 36.87679 -77.80230 31054 ft 521 kts 48°
2026-05-07 00:31 36.89738 -77.76553 31314 ft 527 kts 48°
2026-05-07 00:31 36.91813 -77.72740 31789 ft 526 kts 48°
2026-05-07 00:32 36.93838 -77.68970 32307 ft 524 kts 48°
2026-05-07 00:32 36.95854 -77.65219 32792 ft 522 kts 47°
2026-05-07 00:32 36.97876 -77.61478 33149 ft 523 kts 46°
2026-05-07 00:32 36.99941 -77.57691 33375 ft 528 kts 46°
2026-05-07 00:33 37.02023 -77.53899 33561 ft 532 kts 45°
2026-05-07 00:33 37.04128 -77.50082 34113 ft 528 kts 45°
2026-05-07 00:33 37.06274 -77.46395 34621 ft 521 kts 41°
2026-05-07 00:33 37.08603 -77.42985 34911 ft 508 kts 32°
2026-05-07 00:34 37.11220 -77.40183 34917 ft 488 kts 22°
2026-05-07 00:34 37.14089 -77.37964 34911 ft 477 kts 14°
2026-05-07 00:34 37.17039 -77.36221 34910 ft 466 kts
2026-05-07 00:34 37.20040 -77.34705 34910 ft 456 kts
2026-05-07 00:35 37.25993 -77.32034 34910 ft 454 kts
2026-05-07 00:35 37.31990 -77.29484 34911 ft 453 kts
2026-05-07 00:36 37.37970 -77.26937 34909 ft 453 kts
2026-05-07 00:36 37.43951 -77.24359 34908 ft 453 kts
2026-05-07 00:37 37.49958 -77.21757 34906 ft 459 kts
2026-05-07 00:37 37.55994 -77.19129 34903 ft 457 kts
2026-05-07 00:38 37.62010 -77.16483 34905 ft 454 kts
2026-05-07 00:38 37.68028 -77.13782 34907 ft 463 kts
2026-05-07 00:39 37.73977 -77.10298 34910 ft 476 kts 14°
2026-05-07 00:39 37.79847 -77.06267 34909 ft 480 kts 15°
2026-05-07 00:40 37.85652 -77.02127 34914 ft 478 kts 16°
2026-05-07 00:40 37.91449 -76.98025 34908 ft 479 kts 15°
2026-05-07 00:41 37.97337 -76.93899 34910 ft 482 kts 15°
2026-05-07 00:41 38.03198 -76.89791 34905 ft 477 kts 15°
2026-05-07 00:42 38.07845 -76.86532 34905 ft 477 kts 15°
2026-05-07 00:42 38.13695 -76.82449 34888 ft 481 kts 15°
2026-05-07 00:43 38.19553 -76.78357 34888 ft 483 kts 15°
2026-05-07 00:43 38.25359 -76.73844 34886 ft 496 kts 23°
2026-05-07 00:44 38.30827 -76.68420 34888 ft 501 kts 28°
2026-05-07 00:44 38.36130 -76.62646 34887 ft 502 kts 29°
2026-05-07 00:45 38.41405 -76.56799 34887 ft 503 kts 29°
2026-05-07 00:45 38.46767 -76.50929 34884 ft 509 kts 28°
2026-05-07 00:46 38.52119 -76.45147 34882 ft 504 kts 28°
2026-05-07 00:46 38.57509 -76.39339 34879 ft 505 kts 28°
2026-05-07 00:47 38.62841 -76.33587 34879 ft 505 kts 28°
2026-05-07 00:47 38.68201 -76.27806 34884 ft 508 kts 29°
2026-05-07 00:48 38.73567 -76.22002 34879 ft 505 kts 29°
2026-05-07 00:48 38.78975 -76.16141 34879 ft 510 kts 28°
2026-05-07 00:49 38.84332 -76.10314 34876 ft 509 kts 29°
2026-05-07 00:49 38.89726 -76.04430 34874 ft 505 kts 28°
2026-05-07 00:50 38.95083 -75.98576 34872 ft 510 kts 28°
2026-05-07 00:50 39.00416 -75.92584 34866 ft 511 kts 31°
2026-05-07 00:51 39.05621 -75.86352 34872 ft 512 kts 32°
2026-05-07 00:51 39.10819 -75.80055 34870 ft 516 kts 32°
2026-05-07 00:52 39.16060 -75.73725 34870 ft 518 kts 31°
2026-05-07 00:52 39.21286 -75.67413 34872 ft 513 kts 31°
2026-05-07 00:53 39.26495 -75.61148 34871 ft 516 kts 31°
2026-05-07 00:53 39.31768 -75.54808 34880 ft 518 kts 31°
2026-05-07 00:54 39.36991 -75.48515 34876 ft 517 kts 31°
2026-05-07 00:54 39.42234 -75.42180 34880 ft 516 kts 31°
2026-05-07 00:55 39.47484 -75.35824 34877 ft 519 kts 31°
2026-05-07 00:55 39.52751 -75.29436 34874 ft 515 kts 32°
2026-05-07 00:56 39.57941 -75.23109 34876 ft 516 kts 32°
2026-05-07 00:56 39.62649 -75.17385 34874 ft 523 kts 31°
2026-05-07 00:57 39.67843 -75.11041 34870 ft 519 kts 31°
2026-05-07 00:57 39.73141 -75.04829 34872 ft 517 kts 28°
2026-05-07 00:58 39.78589 -74.98769 34866 ft 512 kts 28°
2026-05-07 00:58 39.84002 -74.92750 34866 ft 512 kts 28°
2026-05-07 00:59 39.92252 -74.83813 34859 ft 510 kts 24°
2026-05-07 01:00 39.97899 -74.78474 34851 ft 498 kts 21°
2026-05-07 01:00 40.03582 -74.73203 34853 ft 507 kts 26°
2026-05-07 01:00 40.06241 -74.70149 34854 ft 518 kts 32°
2026-05-07 01:01 40.08836 -74.66739 34855 ft 529 kts 36°
2026-05-07 01:01 40.13757 -74.59572 34853 ft 526 kts 38°
2026-05-07 01:02 40.18461 -74.52287 34849 ft 524 kts 37°
2026-05-07 01:02 40.23552 -74.45659 34854 ft 513 kts 28°
2026-05-07 01:03 40.28978 -74.39767 34852 ft 504 kts 26°
2026-05-07 01:03 40.34527 -74.34049 34852 ft 513 kts 26°
2026-05-07 01:04 40.40046 -74.28280 34855 ft 504 kts 26°
2026-05-07 01:04 40.45476 -74.22498 34853 ft 501 kts 26°
2026-05-07 01:05 40.50845 -74.16682 34849 ft 508 kts 30°
2026-05-07 01:05 40.53393 -74.13302 34846 ft 525 kts 40°
2026-05-07 01:05 40.55484 -74.09306 34847 ft 540 kts 54°
2026-05-07 01:06 40.58293 -73.99978 34837 ft 549 kts 66°
2026-05-07 01:06 40.60461 -73.90579 34834 ft 554 kts 69°
2026-05-07 01:07 40.62651 -73.80923 34839 ft 546 kts 64°
2026-05-07 01:07 40.64223 -73.76475 34836 ft 532 kts 51°
2026-05-07 01:07 40.66280 -73.72496 34839 ft 514 kts 42°
2026-05-07 01:07 40.68494 -73.68900 34551 ft 504 kts 38°
2026-05-07 01:08 40.70792 -73.65477 33870 ft 503 kts 37°
2026-05-07 01:08 40.73158 -73.62122 33019 ft 507 kts 36°
2026-05-07 01:08 40.75600 -73.58717 32348 ft 508 kts 36°
2026-05-07 01:08 40.78027 -73.55327 31547 ft 512 kts 37°
2026-05-07 01:09 40.80465 -73.51885 30854 ft 513 kts 38°
2026-05-07 01:09 40.82082 -73.49574 30461 ft 512 kts 38°
2026-05-07 01:09 40.84501 -73.46085 29759 ft 514 kts 38°
2026-05-07 01:09 40.87116 -73.42275 29051 ft 514 kts 39°
2026-05-07 01:10 40.89513 -73.38753 28374 ft 513 kts 39°
2026-05-07 01:10 40.91877 -73.35266 27640 ft 515 kts 39°
2026-05-07 01:10 40.94287 -73.31703 27006 ft 514 kts 40°
2026-05-07 01:10 40.96629 -73.28218 26842 ft 500 kts 40°
2026-05-07 01:11 40.98878 -73.24843 26844 ft 482 kts 40°
2026-05-07 01:11 41.01059 -73.21561 26837 ft 469 kts 40°
2026-05-07 01:11 41.03210 -73.18343 26846 ft 468 kts 40°
2026-05-07 01:11 41.05378 -73.15124 26527 ft 473 kts 40°
2026-05-07 01:12 41.07592 -73.11845 26008 ft 472 kts 40°
2026-05-07 01:12 41.09754 -73.08632 25494 ft 469 kts 40°
2026-05-07 01:12 41.11935 -73.05385 24988 ft 466 kts 40°
2026-05-07 01:12 41.14070 -73.02200 24497 ft 462 kts 40°
2026-05-07 01:13 41.16211 -72.98999 24002 ft 459 kts 40°
2026-05-07 01:13 41.18310 -72.95839 23502 ft 457 kts 42°
2026-05-07 01:13 41.20312 -72.92566 22993 ft 458 kts 47°
2026-05-07 01:13 41.21777 -72.89742 22842 ft 452 kts 52°
2026-05-07 01:14 41.23355 -72.86179 22814 ft 444 kts 56°
2026-05-07 01:14 41.24804 -72.82540 22830 ft 446 kts 58°
2026-05-07 01:14 41.26203 -72.78857 22831 ft 450 kts 59°
2026-05-07 01:14 41.27597 -72.75126 22836 ft 449 kts 59°
2026-05-07 01:15 41.28977 -72.71416 22834 ft 449 kts 59°
2026-05-07 01:15 41.30365 -72.67692 22830 ft 449 kts 59°
2026-05-07 01:15 41.31765 -72.63946 22832 ft 449 kts 58°
2026-05-07 01:15 41.33150 -72.60248 22839 ft 446 kts 58°
2026-05-07 01:16 41.34528 -72.56589 22838 ft 448 kts 59°
2026-05-07 01:16 41.35923 -72.52896 22842 ft 448 kts 59°
2026-05-07 01:16 41.37317 -72.49216 22841 ft 445 kts 58°
2026-05-07 01:16 41.38742 -72.45460 22847 ft 457 kts 58°
2026-05-07 01:17 41.40197 -72.41628 22864 ft 472 kts 58°
2026-05-07 01:17 41.41694 -72.37686 22869 ft 488 kts 59°
2026-05-07 01:17 41.43151 -72.33840 22865 ft 501 kts 60°
2026-05-07 01:17 41.44743 -72.29626 22866 ft 511 kts 60°
2026-05-07 01:18 41.46335 -72.25391 22867 ft 514 kts 59°
2026-05-07 01:18 41.47932 -72.21121 22866 ft 510 kts 60°
2026-05-07 01:18 41.49515 -72.16853 22873 ft 511 kts 60°
2026-05-07 01:18 41.51054 -72.12660 22872 ft 511 kts 60°
2026-05-07 01:19 41.52612 -72.08384 22868 ft 510 kts 60°
2026-05-07 01:19 41.54166 -72.04099 22871 ft 512 kts 61°
2026-05-07 01:19 41.55700 -71.99862 22873 ft 512 kts 61°
2026-05-07 01:19 41.57191 -71.95530 22703 ft 514 kts 63°
2026-05-07 01:20 41.58576 -71.91122 22310 ft 509 kts 65°
2026-05-07 01:20 41.59856 -71.86793 21807 ft 504 kts 66°
2026-05-07 01:20 41.61109 -71.82416 21258 ft 498 kts 67°
2026-05-07 01:20 41.62319 -71.78137 20713 ft 493 kts 68°
2026-05-07 01:21 41.63517 -71.73902 20155 ft 488 kts 68°
2026-05-07 01:21 41.64722 -71.69672 19608 ft 482 kts 68°
2026-05-07 01:21 41.65921 -71.65495 19054 ft 477 kts 68°
2026-05-07 01:21 41.67104 -71.61398 18521 ft 471 kts 69°
2026-05-07 01:22 41.68272 -71.57364 18005 ft 465 kts 69°
2026-05-07 01:22 41.69434 -71.53355 17510 ft 459 kts 69°
2026-05-07 01:22 41.70593 -71.49359 17104 ft 453 kts 69°
2026-05-07 01:22 41.71737 -71.45470 16611 ft 451 kts 68°
2026-05-07 01:23 41.73009 -71.41628 16079 ft 447 kts 64°
2026-05-07 01:23 41.74436 -71.37942 15553 ft 443 kts 60°
2026-05-07 01:23 41.75847 -71.34603 15059 ft 440 kts 59°
2026-05-07 01:23 41.77380 -71.31113 14556 ft 436 kts 59°
2026-05-07 01:24 41.78941 -71.27604 14036 ft 435 kts 58°
2026-05-07 01:24 41.80464 -71.24160 13528 ft 433 kts 59°
2026-05-07 01:24 41.81993 -71.20667 13017 ft 427 kts 59°
2026-05-07 01:24 41.83461 -71.17270 12476 ft 420 kts 60°
2026-05-07 01:25 41.84880 -71.13961 12067 ft 399 kts 60°
2026-05-07 01:25 41.86204 -71.10867 11948 ft 372 kts 59°
2026-05-07 01:25 41.87473 -71.07925 11701 ft 353 kts 59°
2026-05-07 01:25 41.88675 -71.05151 11476 ft 343 kts 59°
2026-05-07 01:26 41.89870 -71.02402 11246 ft 344 kts 59°
2026-05-07 01:26 41.91065 -70.99646 10986 ft 339 kts 60°
2026-05-07 01:26 41.92246 -70.96910 10739 ft 338 kts 59°
2026-05-07 01:26 41.93411 -70.94208 10488 ft 337 kts 60°
2026-05-07 01:27 41.94582 -70.91482 10243 ft 335 kts 59°
2026-05-07 01:27 41.95738 -70.88791 10027 ft 328 kts 59°
2026-05-07 01:27 41.96860 -70.86175 10013 ft 320 kts 59°
2026-05-07 01:27 41.97962 -70.83603 10013 ft 320 kts 59°
2026-05-07 01:28 41.99081 -70.80989 9994 ft 324 kts 59°
2026-05-07 01:28 42.00196 -70.78387 9744 ft 323 kts 59°
2026-05-07 01:28 42.01393 -70.75853 9490 ft 319 kts 52°
2026-05-07 01:28 42.02778 -70.73549 9245 ft 315 kts 46°
2026-05-07 01:29 42.04250 -70.71378 8999 ft 312 kts 44°
2026-05-07 01:29 42.05719 -70.69276 8752 ft 311 kts 45°
2026-05-07 01:29 42.07208 -70.67133 8499 ft 311 kts 45°
2026-05-07 01:29 42.08662 -70.65001 8253 ft 310 kts 45°
2026-05-07 01:30 42.10152 -70.62896 8026 ft 307 kts 40°
2026-05-07 01:30 42.11839 -70.61264 7968 ft 300 kts 20°
2026-05-07 01:30 42.13837 -70.60426 7739 ft 297 kts
2026-05-07 01:30 42.15870 -70.59982 7490 ft 291 kts
2026-05-07 01:31 42.17852 -70.59592 7243 ft 289 kts
2026-05-07 01:31 42.19831 -70.59141 7000 ft 288 kts
2026-05-07 01:31 42.21775 -70.58631 6824 ft 282 kts
2026-05-07 01:31 42.23705 -70.58093 6505 ft 281 kts
2026-05-07 01:32 42.25620 -70.57552 6162 ft 280 kts
2026-05-07 01:32 42.27525 -70.57015 5838 ft 279 kts
2026-05-07 01:32 42.29414 -70.56486 5511 ft 278 kts
2026-05-07 01:32 42.31316 -70.56093 5182 ft 273 kts 357°
2026-05-07 01:33 42.33129 -70.56434 4990 ft 255 kts 328°
2026-05-07 01:33 42.34523 -70.57795 5009 ft 248 kts 307°
2026-05-07 01:33 42.35697 -70.59493 4997 ft 249 kts 306°
2026-05-07 01:33 42.36916 -70.61191 5002 ft 251 kts 308°
2026-05-07 01:34 42.38155 -70.62818 4987 ft 248 kts 309°
2026-05-07 01:34 42.39391 -70.64419 4986 ft 247 kts 309°
2026-05-07 01:34 42.40628 -70.66038 4988 ft 249 kts 309°
2026-05-07 01:34 42.41867 -70.67670 4985 ft 248 kts 308°
2026-05-07 01:35 42.43117 -70.69308 4989 ft 247 kts 309°
2026-05-07 01:35 42.44360 -70.70940 4977 ft 249 kts 309°
2026-05-07 01:35 42.45584 -70.72549 4974 ft 248 kts 309°
2026-05-07 01:35 42.46831 -70.74196 4973 ft 248 kts 309°
2026-05-07 01:36 42.48049 -70.75806 4980 ft 247 kts 309°
2026-05-07 01:36 42.49285 -70.77440 4980 ft 246 kts 309°
2026-05-07 01:36 42.50505 -70.79054 4975 ft 244 kts 309°
2026-05-07 01:36 42.51759 -70.80570 4970 ft 241 kts 317°
2026-05-07 01:37 42.53273 -70.81515 4800 ft 247 kts 345°
2026-05-07 01:37 42.55021 -70.81301 4472 ft 260 kts 12°
2026-05-07 01:37 42.56742 -70.80401 4082 ft 266 kts 18°
2026-05-07 01:37 42.58402 -70.79403 3977 ft 259 kts 19°
2026-05-07 01:38 42.60046 -70.78329 3988 ft 266 kts 21°
2026-05-07 01:38 42.61721 -70.77219 3983 ft 265 kts 20°
2026-05-07 01:38 42.63444 -70.76444 3973 ft 255 kts 356°
2026-05-07 01:38 42.65093 -70.76936 3984 ft 239 kts 320°
2026-05-07 01:39 42.66243 -70.78427 3984 ft 226 kts 301°
2026-05-07 01:39 42.67190 -70.80149 3972 ft 225 kts 300°
2026-05-07 01:39 42.67952 -70.81941 3963 ft 218 kts 280°
2026-05-07 01:39 42.67853 -70.83933 3977 ft 214 kts 243°
2026-05-07 01:40 42.66850 -70.85399 3992 ft 216 kts 216°
2026-05-07 01:40 42.65486 -70.86337 3967 ft 218 kts 208°
2026-05-07 01:40 42.64145 -70.87061 3959 ft 199 kts 206°
2026-05-07 01:40 42.62888 -70.87685 3982 ft 183 kts 206°
2026-05-07 01:41 42.61718 -70.88276 3978 ft 178 kts 207°
2026-05-07 01:41 42.60567 -70.88847 3992 ft 170 kts 206°
2026-05-07 01:41 42.59488 -70.89372 3971 ft 163 kts 206°
2026-05-07 01:41 42.58437 -70.89885 3980 ft 159 kts 206°
2026-05-07 01:42 42.57394 -70.90395 3984 ft 160 kts 207°
2026-05-07 01:42 42.56334 -70.90911 3981 ft 161 kts 206°
2026-05-07 01:42 42.55277 -70.91424 3853 ft 162 kts 207°
2026-05-07 01:42 42.54224 -70.91931 3583 ft 156 kts 207°
2026-05-07 01:43 42.53199 -70.92431 3367 ft 157 kts 207°
2026-05-07 01:43 42.52171 -70.92931 3146 ft 157 kts 207°
2026-05-07 01:43 42.51152 -70.93425 2923 ft 155 kts 206°
2026-05-07 01:43 42.50156 -70.93906 2754 ft 143 kts 206°
2026-05-07 01:44 42.49248 -70.94340 2479 ft 133 kts 207°
2026-05-07 01:44 42.48412 -70.94733 2325 ft 125 kts 205°
2026-05-07 01:44 42.47593 -70.95139 2190 ft 128 kts 207°
2026-05-07 01:44 42.46746 -70.95523 1996 ft 126 kts 202°
2026-05-07 01:45 42.45923 -70.95905 1818 ft 124 kts 207°
2026-05-07 01:45 42.45134 -70.96354 1671 ft 124 kts 207°
2026-05-07 01:45 42.44310 -70.96738 1445 ft 124 kts 202°
2026-05-07 01:45 42.43476 -70.97121 1371 ft 128 kts 205°
2026-05-07 01:46 42.42630 -70.97556 1126 ft 129 kts 204°
2026-05-07 01:46 42.41790 -70.97948 970 ft 127 kts 203°
2026-05-07 01:46 42.40933 -70.98373 791 ft 131 kts 204°
2026-05-07 01:46 42.40091 -70.98774 612 ft 128 kts 200°
2026-05-07 01:47 42.39245 -70.99184 442 ft 130 kts 202°
2026-05-07 01:47 42.38377 -70.99605 269 ft 132 kts 199°
2026-05-07 01:47 42.37490 -71.00019 71 ft 136 kts 200°
2026-05-07 01:47 42.36652 -71.00430 15 ft 101 kts 201°
2026-05-07 01:48 42.36235 -71.00637 17 ft 34 kts 205°
2026-05-07 01:48 42.36150 -71.00810 18 ft 20 kts 287°
2026-05-07 01:48 42.36197 -71.00960 18 ft 12 kts 293°
2026-05-07 01:48 42.36231 -71.01058 19 ft 9 kts 295°
2026-05-07 01:49 42.36263 -71.01148 20 ft 13 kts 297°
2026-05-07 01:49 42.36314 -71.01266 20 ft 13 kts 301°
2026-05-07 01:49 42.36359 -71.01368 20 ft 11 kts 293°
2026-05-07 01:49 42.36312 -71.01440 20 ft 13 kts 200°
2026-05-07 01:50 42.36224 -71.01485 21 ft 7 kts 201°
2026-05-07 01:50 42.36209 -71.01540 20 ft 7 kts 288°
2026-05-07 01:50 42.36213 -71.01554 20 ft 0 kts 294°
2026-05-07 01:50 42.36226 -71.01578 20 ft 5 kts 319°
2026-05-07 01:51 42.36263 -71.01600 19 ft 5 kts 341°
2026-05-07 01:51 42.36284 -71.01610 19 ft 2 kts 341°
2026-05-07 01:51 42.36293 -71.01614 19 ft 0 kts 343°